Regional Weather Roundup
Issued by NWS Tiyan, Guam

Home | Current Version | Previous Version | Text Only | Print | Product List | Glossary On
Versions: 1 2 3 4 5 6 7 8 9 10 11 12 13 14 15 16 17 18 19 20 21 22 23 24 25 26 27 28 29 30 31 32 33 34 35 36 37 38 39 40 41 42 43 44 45 46 47 48 49 50
000
ASGM40 PGUM 010010
RWRGUM
WEATHER ROUNDUP FOR THE MARIANAS
NATIONAL WEATHER SERVICE TIYAN GU
1000 AM CHST TUE SEP 01 2015

GUZ001>004-010100-
MARIANA ISLANDS-

CITY           SKY/WX    TMP DP  RH WIND       PRES   REMARKS
GUAM AIRPORT   MOSUNNY   84  75  74 SE6       29.88F HX  92
ANDERSEN AFB   SUNNY     81  77  89 SE6       29.89F
ROTA AIRPORT   MOSUNNY   84  77  79 SE7       29.89F HX  94
TINIAN AP      LGT RAIN  81  75  83 E13       29.88S
SAIPAN AP      PTSUNNY   84  79  84 SE9       29.89S HX  96

$$




USA.gov is the U.S. government's official web portal to all federal, state and local government web resources and services.